Weather History for Cedar City, UT

Change the Weather History Date:

Saturday, September 21, 2013

  Actual Average Record
Temperature  
Mean Temperature 64 °F 60 °F  
Max Temperature 78 °F 77 °F 88 °F (1966)
Min Temperature 49 °F 43 °F 28 °F (1965)
Degree Days  
Heating Degree Days 1 6  
Month to date heating degree days 46 65  
Since 1 July heating degree days 49 74  
Cooling Degree Days 0 0  
Month to date cooling degree days 35 36  
Year to date cooling degree days 667 585  
Growing Degree Days 14 (Base 50)    
Moisture  
Dew Point 34 °F    
Average Humidity 39    
Maximum Humidity 56    
Minimum Humidity 22    
Precipitation  
Precipitation 0.00 in 0.02 in 0.19 in (1964)
Month to date precipitation 1.75 0.44  
Year to date precipitation 13.00 7.98  
Sea Level Pressure  
Sea Level Pressure 29.72 in    
Wind  
Wind Speed 13 mph (SSW)    
Max Wind Speed 33 mph    
Max Gust Speed 47 mph    
Visibility 10 miles    
Events      
T = Trace of Precipitation, MM = Missing Value Source: NWS Daily Summary

Daily Weather History Graph

Daily Weather History Graph

Search for Another Location

Airport:

Trip Planner

Search our weather history database for the weather conditions in past years. The results will help you decide how hot, cold, wet, or windy it might be!

Date:

Astronomy

Sep. 21, 2013 Rise Set
Actual Time 7:19 AM MDT 7:30 PM MDT
Civil Twilight 6:53 AM MDT 7:56 PM MDT
Nautical Twilight 6:22 AM MDT 8:27 PM MDT
Astronomical Twilight 5:51 AM MDT 8:58 PM MDT
Moon 8:47 PM MDT (9/21) 9:38 AM MDT (9/21)
Length of Visible Light 13h 03m
Length of Day
12h 10m
Waning Gibbous, 94% of the Moon is Illuminated
Sep 21
Waning Gibbous
Sep 26
Last Quarter
Oct 4
New
Oct 11
First Quarter
Oct 18
Full

Hourly Weather History & Observations

Time (MDT) Temp. Dew Point Humidity Pressure Visibility Wind Dir Wind Speed Gust Speed Precip Events Conditions
12:53 AM 57.9 °F 30.9 °F 36% 29.83 in 10.0 mi SSW 3.5 mph - N/A   Clear
1:53 AM 53.1 °F 34.0 °F 48% 29.82 in 10.0 mi Calm Calm - N/A   Clear
2:53 AM 55.9 °F 30.9 °F 39% 29.80 in 10.0 mi Calm Calm - N/A   Clear
3:53 AM 52.0 °F 33.1 °F 49% 29.81 in 10.0 mi SSE 3.5 mph - N/A   Clear
4:53 AM 55.0 °F 32.0 °F 42% 29.80 in 10.0 mi SW 5.8 mph - N/A   Clear
5:53 AM 52.0 °F 34.0 °F 50% 29.81 in 10.0 mi South 5.8 mph - N/A   Clear
6:53 AM 54.0 °F 34.0 °F 47% 29.81 in 10.0 mi South 3.5 mph - N/A   Clear
7:53 AM 55.9 °F 35.1 °F 45% 29.83 in 10.0 mi South 11.5 mph - N/A   Clear
8:53 AM 63.0 °F 37.0 °F 38% 29.82 in 10.0 mi SSW 8.1 mph - N/A   Clear
9:53 AM 69.1 °F 39.9 °F 35% 29.79 in 10.0 mi SW 12.7 mph 20.7 mph N/A   Clear
10:53 AM 71.1 °F 39.9 °F 32% 29.80 in 10.0 mi SW 19.6 mph 26.5 mph N/A   Clear
11:53 AM 73.9 °F 39.0 °F 28% 29.76 in 10.0 mi SW 20.7 mph 29.9 mph N/A   Clear
12:53 PM 75.0 °F 37.0 °F 25% 29.74 in 10.0 mi SSW 20.7 mph 38.0 mph N/A   Clear
1:53 PM 75.9 °F 39.0 °F 26% 29.72 in 10.0 mi South 26.5 mph 39.1 mph N/A   Clear
2:53 PM 77.0 °F 39.9 °F 26% 29.68 in 10.0 mi SSW 26.5 mph 38.0 mph N/A   Partly Cloudy
3:53 PM 77.0 °F 37.0 °F 24% 29.67 in 10.0 mi SW 29.9 mph 41.4 mph N/A   Clear
4:53 PM 75.9 °F 35.1 °F 23% 29.64 in 10.0 mi SSW 25.3 mph 40.3 mph N/A   Clear
5:53 PM 75.0 °F 33.1 °F 22% 29.62 in 10.0 mi SW 25.3 mph 36.8 mph N/A   Clear
6:53 PM 72.0 °F 32.0 °F 23% 29.61 in 10.0 mi SW 23.0 mph 34.5 mph N/A   Clear
7:53 PM 70.0 °F 30.0 °F 23% 29.61 in 10.0 mi SSW 16.1 mph 32.2 mph N/A   Clear
8:53 PM 69.1 °F 28.9 °F 22% 29.59 in 10.0 mi South 15.0 mph 26.5 mph N/A   Clear
9:53 PM 68.0 °F 28.9 °F 23% 29.56 in 10.0 mi South 16.1 mph 24.2 mph N/A   Clear
10:53 PM 66.9 °F 28.9 °F 24% 29.55 in 10.0 mi South 18.4 mph 31.1 mph N/A   Clear
11:53 PM 66.9 °F 28.0 °F 23% 29.53 in 10.0 mi South 15.0 mph 33.4 mph N/A   Clear